Simultaneous Nadir Overpasses (SNOs) Predictions

Prediction of SNOs between GOES-17 and AQUA Satellite Orbit:

Table of predicted SNOs for the next 14.0 days since TLE Epoch: 11/21/2025
Index Date Time (GOES-17) GOES-17 Lat,Lon AQUA Lat,Lon Distance(km) Time Diff (sec)
1 11/22/2025 09:11:30 0.15, -89.51 0.70, -92.12 295.95 80
2 11/24/2025 08:47:42 0.13, -89.51 -0.43, -86.94 292.70 80
3 11/24/2025 21:09:25 -0.17, -89.49 -0.62, -91.54 233.45 80
4 11/26/2025 20:45:38 -0.14, -89.49 0.56, -86.37 356.42 80
5 11/27/2025 09:07:13 0.18, -89.52 0.46, -90.93 159.83 80
6 11/29/2025 08:43:23 0.15, -89.53 -0.64, -85.74 430.44 80
7 11/29/2025 21:05:07 -0.19, -89.50 -0.38, -90.34 95.74 80
8 12/01/2025 20:41:17 -0.17, -89.52 0.76, -85.16 495.56 80
9 12/02/2025 09:02:53 0.21, -89.55 0.24, -89.73 19.97 80
10 12/04/2025 20:58:05 -0.23, -89.53 -0.17, -89.13 44.63 80
11 12/05/2025 09:19:41 0.26, -89.57 1.16, -93.70 470.19 80
